TimePST,TemperatureF,Dew PointF,Humidity,Sea Level PressureIn,VisibilityMPH,Wind Direction,Wind SpeedMPH,Gust SpeedMPH,PrecipitationIn,Events,Conditions,WindDirDegrees,DateUTC
12:53 AM,9.0,5.0,84,30.60,10.0,Calm,Calm,-,N/A,,Clear,0,2013-01-15 08:53:00
1:53 AM,7.0,3.0,84,30.61,10.0,Calm,Calm,-,N/A,,Clear,0,2013-01-15 09:53:00
2:53 AM,5.0,1.0,84,30.64,10.0,ENE,4.6,-,N/A,,Clear,60,2013-01-15 10:53:00
4:53 AM,3.9,1.0,88,30.67,10.0,Calm,Calm,-,N/A,,Clear,0,2013-01-15 12:53:00
5:53 AM,3.0,-0.0,87,30.70,10.0,Calm,Calm,-,N/A,,Clear,0,2013-01-15 13:53:00
6:00 AM,3.2,-0.4,85,30.52,10.0,Calm,Calm,-,N/A,,Clear,0,2013-01-15 14:00:00
6:53 AM,3.9,1.0,88,30.72,10.0,NW,3.5,-,N/A,,Clear,320,2013-01-15 14:53:00
7:53 AM,5.0,3.0,92,30.76,9.0,NNE,4.6,-,N/A,,Scattered Clouds,20,2013-01-15 15:53:00
8:53 AM,6.1,3.0,87,30.79,10.0,Calm,Calm,-,N/A,,Mostly Cloudy,0,2013-01-15 16:53:00
9:53 AM,12.9,8.1,81,30.77,10.0,Calm,Calm,-,N/A,,Scattered Clouds,0,2013-01-15 17:53:00
10:53 AM,16.0,9.0,74,30.77,8.0,Calm,Calm,-,N/A,,Scattered Clouds,0,2013-01-15 18:53:00
11:53 AM,19.0,10.0,68,30.74,10.0,Calm,Calm,-,N/A,,Scattered Clouds,0,2013-01-15 19:53:00
1:53 PM,26.1,12.0,55,30.69,10.0,Calm,Calm,-,N/A,,Partly Cloudy,0,2013-01-15 21:53:00
2:53 PM,27.0,12.0,53,30.71,10.0,Calm,Calm,-,N/A,,Partly Cloudy,0,2013-01-15 22:53:00
3:53 PM,28.0,12.0,51,30.72,10.0,Calm,Calm,-,N/A,,Clear,0,2013-01-15 23:53:00
4:53 PM,26.1,12.0,55,30.74,10.0,Calm,Calm,-,N/A,,Clear,0,2013-01-16 00:53:00
5:53 PM,18.0,10.9,74,30.77,10.0,Calm,Calm,-,N/A,,Clear,0,2013-01-16 01:53:00
6:53 PM,18.0,12.0,78,30.79,10.0,Calm,Calm,-,N/A,,Clear,0,2013-01-16 02:53:00
7:53 PM,15.1,10.0,80,30.79,10.0,Calm,Calm,-,N/A,,Clear,0,2013-01-16 03:53:00
8:53 PM,8.1,6.1,92,30.82,10.0,Calm,Calm,-,N/A,,Clear,0,2013-01-16 04:53:00
10:53 PM,7.0,3.9,87,30.78,10.0,Calm,Calm,-,N/A,,Clear,0,2013-01-16 06:53:00